Zeerust Airport

Jump to: basic info | weather | runways | comments

Related pages: nearby airports | nearby navaids | notams | map

Basic information (top)

Codes: FAZR
Location: lon -25.599001, lat 26.042299, elev 4,258 ft / 1,298 m msl
Status: small_airport

Weather (top)

Current conditions for Manyani Game Lodge Airport 22nm (41km) SW (rec'd 2014/04/23 06:00Z):

FAML 230600Z 16005KT CAVOK 11/// Q1017

Airport forecast for Mmabatho International Airport 29nm (54km) WSW (rec'd 2014/07/14 04:00Z):

TAF FAMM 140300Z 1404/1415 14006KT CAVOK 
      BECMG 1407/1409 06007KT 
      BECMG 1410/1412 36007KT TX22/1412ZTN02/1404Z

Runways (top)

04/22: 6,480 x 100 ft (1,975 x 30 m) — paved — not lighted

Latest comments (top)

No comments yet for Zeerust Airport

More... (top)

See also NOTAMs and nearby airports and navaids, or visit the Zeerust Airport page at the main OurAirports website..